Temp
9 8 8 8 8 9 9 9 9 9 9 9 9 9 10 9 10 9 10 9 9 10 13 14 15 15 16 16 14 18 17 17 13 13 12 10 10 10 11 12 15 13 11 10 9 12 15 16 16 16 15 16 16 14
8 8 8 8 8 8 8 8 9 9 9 9 9 9 8 7 7 8 9 9 9 9 12 14 15 16 16 17 17 18 19 17 17 11 10 9 10 8 9 13 12 13 12 11 11 11 14 15 16 17 17 17 16 15
8 7 7 7 7 8 8 8 9 9 9 9 9 7 6 6 6 7 9 9 9 10 12 13 17 19 18 19 18 19 19 19 19 19 13 10 14 9 10 10 14 14 14 12 13 13 16 17 17 18 18 18 17 18
7 6 6 6 7 7 8 8 8 8 9 9 7 6 6 6 6 7 8 9 10 10 9 14 16 18 19 19 19 20 21 20 20 20 16 11 13 13 11 13 13 14 14 12 12 15 16 16 17 17 18 18 18 17
6 6 6 6 6 7 7 8 8 8 8 7 7 7 6 6 8 8 8 9 10 10 9 12 16 20 19 19 19 20 20 20 20 18 13 13 13 13 11 11 13 15 13 12 12 17 16 18 17 17 18 18 18 17
6 6 6 6 6 7 7 7 8 8 8 7 7 7 7 8 8 8 9 11 11 10 10 9 15 17 19 19 20 20 20 20 20 20 16 17 17 16 12 12 15 18 19 20 20 19 19 19 18 18 18 17 17 18
6 6 6 6 6 6 7 7 7 8 7 7 7 7 7 8 8 9 9 10 11 10 11 10 11 16 18 19 19 19 20 19 19 18 17 17 17 16 9 12 18 19 19 20 20 19 17 18 18 18 18 17 17 17
5 6 5 5 5 6 6 6 7 7 7 7 7 6 7 8 8 10 10 9 9 11 11 9 10 14 16 18 18 19 19 19 18 17 16 15 15 13 13 15 18 19 19 19 19 20 20 18 18 17 17 17 17 16
4 4 4 5 5 5 6 6 7 6 6 6 7 7 7 7 9 10 11 11 10 11 11 9 10 12 16 17 18 18 18 13 15 13 14 14 9 12 14 17 18 19 19 19 19 19 18 18 18 17 17 16 16 16
4 4 4 5 6 5 6 6 6 6 6 6 6 7 8 9 10 10 11 11 11 12 11 9 12 11 14 14 13 15 15 12 13 12 14 11 10 17 18 19 19 19 19 19 18 17 17 17 17 17 17 16 16 15
4 4 5 5 5 5 5 6 6 6 6 6 7 8 8 10 10 10 11 10 10 10 12 12 13 12 13 12 11 12 11 10 13 12 12 10 10 14 19 19 19 19 19 19 19 19 18 18 17 17 17 17 16 15
5 5 5 5 5 5 5 6 6 6 6 7 7 8 9 10 10 10 8 9 8 9 12 12 13 14 14 13 12 11 11 10 13 11 11 10 10 19 19 19 19 19 18 18 18 18 18 18 17 17 17 16 15 15
5 4 5 5 5 5 5 5 5 6 6 7 7 8 9 9 6 8 9 8 8 12 13 12 10 13 13 14 10 9 10 10 11 11 12 10 16 19 19 19 18 18 18 18 18 18 17 17 16 16 16 15 15 14
4 5 5 4 4 5 5 5 5 6 6 7 7 6 6 7 7 7 8 9 13 13 13 14 12 11 12 11 9 13 10 11 11 11 12 11 17 19 19 18 18 17 17 17 17 17 17 17 16 15 15 15 14 14
4 4 5 4 4 5 5 5 5 5 6 6 7 7 7 8 9 10 11 11 12 12 12 12 12 12 9 10 9 10 11 12 11 12 12 18 18 19 18 17 18 17 17 17 17 17 16 16 15 15 14 14 13 13
4 4 5 4 5 5 5 5 5 5 6 6 6 7 8 7 8 10 11 11 12 12 11 13 10 10 11 10 11 11 12 12 13 11 17 17 19 18 18 17 17 17 16 16 16 16 16 15 15 14 13 13 12 12
4 4 4 5 5 5 5 5 5 6 6 6 6 8 7 8 8 9 10 11 11 12 9 10 11 10 9 10 11 10 12 11 14 17 18 18 18 19 17 17 16 16 16 16 16 15 15 15 14 13 12 12 12 11
4 4 4 5 5 5 5 5 5 5 6 7 6 8 8 9 9 10 11 11 11 10 10 10 10 9 10 11 10 10 12 13 15 16 17 17 18 16 16 16 16 16 15 15 15 15 14 14 13 13 13 12 11 11
3 4 4 5 5 5 5 5 6 6 7 7 8 9 9 10 11 12 11 11 11 10 10 10 10 9 9 9 10 12 14 14 13 14 15 17 16 15 16 16 15 15 15 15 14 14 14 14 14 13 12 11 11 10
4 4 5 5 4 5 5 6 7 7 7 9 10 10 10 11 13 13 12 11 11 10 10 8 9 11 12 14 15 15 15 16 14 14 14 15 14 15 15 16 15 15 15 14 14 14 13 13 12 12 12 11 10 10
4 4 4 4 4 5 5 6 7 8 9 9 11 11 12 12 12 11 10 10 10 10 9 12 13 14 13 13 14 14 14 15 14 15 16 15 14 14 15 15 15 14 14 14 14 13 13 12 12 11 11 10 10 10
4 4 4 4 5 5 6 7 7 8 9 10 10 11 12 11 12 12 11 11 11 12 13 14 15 15 14 14 14 14 14 14 14 13 14 15 15 14 14 14 14 14 14 13 13 13 12 12 11 11 10 10 10 10
4 4 4 5 5 5 6 7 8 9 8 10 11 10 10 11 13 11 11 12 13 14 15 15 15 15 15 15 15 14 14 14 14 13 14 14 14 14 14 14 13 13 13 13 13 13 13 12 11 11 10 10 10 10
4 5 5 5 5 5 7 8 9 9 10 9 9 11 11 11 12 11 10 12 13 14 14 14 15 15 15 16 15 15 15 14 14 14 13 13 14 14 15 14 14 14 13 13 13 12 12 11 11 10 10 10 10 10
5 5 5 5 6 6 8 9 9 8 9 9 10 10 10 12 10 9 10 10 10 11 11 12 14 15 14 15 16 16 15 14 14 14 15 15 15 16 16 15 14 14 13 13 13 12 11 11 11 11 11 10 10 10
4 6 5 8 8 7 8 9 9 9 9 11 9 10 11 9 11 11 9 10 11 11 11 11 12 13 14 14 14 14 15 15 14 14 15 15 14 14 14 14 14 14 13 13 13 12 12 12 12 11 11 10 10 10
4 6 8 8 9 9 9 10 10 8 9 10 9 10 10 12 12 9 10 10 10 11 11 11 11 12 14 14 14 14 14 14 14 14 15 15 15 14 14 14 13 13 12 12 12 12 13 12 12 12 11 11 11 10
6 7 7 9 9 10 9 9 10 10 9 9 9 10 10 9 8 10 10 10 10 10 11 12 12 13 14 15 15 14 14 14 13 13 14 14 14 14 13 13 12 12 12 11 12 12 13 12 12 12 12 11 11 10
6 8 9 9 10 10 9 8 8 9 9 9 8 8 8 9 10 10 11 11 11 11 11 12 13 14 14 15 14 14 14 14 14 14 13 12 12 12 12 11 11 12 11 11 11 11 11 11 12 12 12 11 11 10
8 10 10 10 10 8 8 8 9 8 8 9 9 9 9 10 11 11 11 11 11 11 11 11 11 12 13 14 14 14 14 14 13 13 13 13 12 12 12 12 11 11 11 9 8 9 9 8 8 8 8 9 10 10
10 11 10 10 10 10 11 9 9 8 8 8 9 9 9 10 10 10 10 10 10 10 10 10 10 11 12 12 12 13 12 12 12 12 12 11 11 11 10 10 11 11 11 11 9 8 9 8 7 8 9 9 10 10
11 11 10 10 11 9 9 9 8 8 8 9 9 9 9 10 10 10 10 10 10 10 9 9 10 10 10 10 10 10 10 10 10 10 10 11 11 11 11 11 11 10 9 9 9 9 8 8 9 9 9 9 10 10
11 11 11 11 11 10 8 8 8 8 9 10 10 10 10 11 11 11 10 10 10 10 10 9 9 9 9 9 9 9 9 10 10 10 10 10 10 11 10 11 11 11 10 10 9 9 9 9 9 9 9 10 10 10
Height
1507 1506 1504 1503 1501 1500 1498 1497 1495 1493 1491 1489 1488 1486 1485 1485 1485 1486 1489 1490 1493 1490 1484 1484 1484 1482 1483 1482 1483 1479 1484 1484 1488 1498 1505 1511 1514 1515 1514 1510 1504 1508 1518 1522 1526 1521 1514 1493 1495 1501 1493 1491 1493 1495
1501 1501 1499 1499 1497 1495 1494 1493 1491 1489 1486 1485 1483 1482 1481 1481 1481 1482 1486 1487 1489 1489 1483 1480 1479 1477 1480 1479 1481 1478 1478 1479 1481 1492 1500 1506 1510 1514 1514 1512 1503 1510 1504 1510 1511 1511 1496 1493 1492 1491 1491 1492 1493 1493
1495 1495 1494 1494 1493 1492 1490 1489 1487 1485 1483 1481 1479 1478 1478 1477 1478 1479 1482 1485 1487 1486 1480 1477 1472 1475 1474 1475 1477 1477 1477 1478 1479 1480 1486 1494 1499 1504 1512 1510 1499 1496 1494 1501 1501 1500 1497 1493 1495 1495 1495 1494 1494 1496
1488 1488 1488 1488 1488 1487 1486 1485 1483 1481 1479 1476 1475 1475 1474 1474 1474 1475 1478 1481 1484 1484 1481 1470 1469 1470 1470 1473 1474 1475 1475 1476 1478 1480 1482 1489 1493 1492 1498 1492 1496 1492 1494 1498 1501 1498 1499 1498 1498 1498 1497 1496 1497 1500
1482 1482 1483 1482 1483 1482 1482 1481 1479 1477 1476 1474 1473 1472 1471 1471 1471 1473 1474 1477 1480 1484 1479 1470 1467 1463 1466 1469 1472 1473 1474 1476 1478 1480 1484 1488 1485 1488 1489 1490 1491 1487 1491 1498 1500 1490 1493 1496 1497 1499 1498 1499 1500 1500
1476 1476 1477 1477 1477 1477 1477 1477 1475 1474 1473 1472 1471 1470 1468 1468 1469 1472 1473 1474 1475 1478 1478 1474 1465 1460 1462 1464 1468 1471 1472 1474 1476 1478 1481 1481 1482 1484 1492 1497 1483 1482 1483 1484 1485 1488 1491 1495 1499 1499 1499 1502 1504 1505
1470 1471 1471 1472 1472 1473 1473 1473 1472 1471 1470 1470 1469 1468 1467 1467 1468 1470 1471 1470 1472 1477 1477 1472 1463 1457 1457 1460 1464 1467 1470 1472 1475 1477 1478 1479 1480 1481 1488 1493 1480 1479 1480 1482 1484 1487 1493 1496 1497 1500 1501 1503 1505 1506
1465 1465 1466 1467 1468 1469 1469 1469 1468 1468 1467 1467 1467 1466 1465 1466 1467 1469 1471 1471 1473 1476 1476 1473 1464 1458 1456 1456 1460 1464 1467 1471 1473 1475 1477 1477 1479 1480 1486 1478 1479 1480 1480 1482 1485 1487 1489 1494 1497 1499 1500 1503 1505 1508
1460 1461 1462 1463 1464 1465 1466 1466 1465 1465 1464 1464 1464 1464 1465 1466 1466 1467 1469 1471 1473 1477 1472 1470 1469 1464 1455 1455 1457 1461 1465 1472 1473 1473 1474 1476 1482 1483 1474 1474 1476 1478 1480 1481 1485 1488 1490 1493 1496 1499 1501 1504 1507 1509
1457 1457 1459 1460 1461 1462 1462 1463 1463 1462 1462 1461 1463 1464 1463 1463 1465 1467 1470 1471 1472 1472 1470 1467 1463 1462 1459 1457 1458 1461 1464 1470 1476 1472 1471 1475 1477 1470 1470 1472 1473 1476 1479 1481 1484 1488 1491 1494 1496 1499 1501 1504 1506 1509
1454 1454 1455 1456 1457 1459 1460 1460 1461 1461 1461 1461 1462 1462 1462 1462 1465 1466 1466 1467 1467 1468 1463 1459 1460 1461 1460 1461 1462 1463 1466 1470 1475 1474 1473 1475 1475 1466 1467 1469 1471 1474 1476 1479 1482 1485 1488 1491 1494 1497 1501 1503 1506 1509
1450 1451 1451 1453 1454 1456 1457 1458 1458 1459 1459 1461 1461 1461 1462 1463 1463 1464 1465 1463 1463 1462 1454 1453 1453 1456 1459 1460 1469 1471 1470 1470 1471 1470 1471 1476 1462 1457 1461 1464 1467 1470 1473 1477 1480 1483 1486 1488 1492 1496 1499 1503 1506 1510
1447 1448 1449 1451 1452 1454 1455 1456 1456 1457 1459 1460 1460 1460 1460 1462 1465 1462 1461 1459 1458 1449 1447 1448 1452 1452 1456 1457 1462 1467 1476 1476 1467 1469 1467 1460 1451 1453 1456 1459 1463 1467 1471 1474 1477 1481 1483 1486 1490 1494 1498 1503 1507 1510
1445 1446 1448 1449 1451 1453 1454 1454 1455 1457 1459 1460 1459 1461 1461 1458 1455 1450 1450 1449 1446 1446 1445 1447 1449 1451 1453 1455 1459 1461 1466 1466 1470 1472 1461 1450 1446 1448 1451 1455 1460 1463 1467 1471 1474 1478 1481 1484 1489 1494 1497 1501 1505 1509
1444 1445 1446 1448 1450 1451 1453 1453 1454 1456 1457 1458 1459 1458 1454 1449 1447 1447 1446 1445 1445 1444 1444 1446 1449 1451 1453 1456 1457 1461 1464 1463 1462 1457 1446 1441 1441 1444 1447 1451 1456 1460 1463 1467 1471 1475 1479 1483 1488 1493 1497 1501 1505 1508
1442 1444 1445 1447 1449 1450 1452 1453 1454 1456 1457 1456 1455 1452 1448 1447 1445 1444 1444 1443 1443 1443 1444 1448 1451 1452 1452 1453 1454 1454 1455 1455 1447 1442 1437 1437 1437 1440 1444 1449 1453 1458 1461 1465 1469 1473 1477 1482 1486 1491 1496 1501 1504 1507
1441 1442 1444 1446 1447 1450 1452 1454 1453 1455 1454 1453 1449 1446 1446 1445 1444 1443 1444 1444 1444 1443 1446 1450 1453 1454 1453 1452 1451 1446 1446 1442 1438 1437 1436 1436 1437 1438 1442 1449 1452 1456 1460 1463 1467 1472 1477 1481 1485 1490 1494 1499 1503 1506
1441 1443 1444 1446 1447 1450 1452 1452 1452 1452 1450 1447 1446 1441 1442 1441 1440 1441 1442 1442 1442 1441 1443 1446 1446 1450 1447 1444 1443 1439 1438 1436 1435 1435 1437 1436 1435 1437 1444 1448 1453 1457 1460 1464 1468 1471 1475 1479 1484 1488 1493 1496 1500 1503
1441 1442 1444 1445 1447 1450 1451 1452 1451 1448 1444 1442 1439 1438 1438 1437 1436 1437 1438 1439 1439 1439 1442 1442 1442 1442 1440 1437 1435 1435 1435 1435 1434 1434 1435 1435 1437 1441 1444 1448 1452 1456 1459 1463 1467 1470 1474 1478 1482 1487 1491 1494 1497 1500
1441 1442 1443 1444 1448 1449 1449 1449 1449 1446 1441 1437 1435 1434 1434 1432 1431 1431 1432 1434 1438 1439 1439 1438 1434 1430 1430 1430 1430 1430 1432 1432 1432 1432 1434 1434 1439 1444 1446 1448 1451 1455 1459 1462 1466 1470 1474 1478 1482 1486 1489 1492 1495 1496
1441 1442 1443 1445 1447 1448 1448 1445 1444 1441 1437 1435 1432 1431 1430 1428 1427 1426 1428 1432 1437 1434 1433 1428 1425 1426 1427 1428 1428 1429 1429 1430 1430 1431 1432 1434 1439 1443 1446 1448 1451 1454 1457 1460 1464 1468 1472 1475 1479 1484 1487 1490 1492 1494
1440 1442 1443 1445 1445 1446 1446 1442 1441 1439 1437 1432 1429 1428 1426 1425 1424 1425 1426 1429 1429 1426 1425 1422 1422 1423 1424 1424 1424 1425 1427 1427 1427 1430 1433 1435 1437 1440 1443 1446 1448 1451 1455 1458 1461 1465 1469 1473 1476 1480 1484 1487 1489 1491
1440 1442 1442 1444 1445 1445 1442 1440 1439 1435 1433 1428 1426 1425 1424 1423 1422 1423 1423 1421 1420 1419 1420 1419 1420 1420 1419 1419 1420 1422 1422 1424 1426 1428 1431 1433 1436 1437 1440 1444 1447 1449 1453 1456 1459 1461 1464 1468 1472 1476 1479 1482 1485 1488
1441 1442 1441 1441 1442 1441 1439 1436 1434 1432 1429 1427 1425 1422 1421 1420 1420 1420 1420 1417 1416 1415 1415 1416 1417 1417 1417 1416 1417 1418 1419 1421 1424 1427 1428 1430 1431 1434 1437 1439 1442 1445 1447 1451 1454 1458 1462 1465 1469 1473 1475 1477 1480 1483
1442 1442 1441 1438 1438 1439 1435 1431 1429 1429 1427 1425 1424 1421 1418 1418 1420 1420 1419 1418 1417 1416 1414 1413 1411 1410 1411 1413 1414 1415 1417 1419 1420 1421 1424 1426 1428 1429 1432 1435 1438 1441 1443 1445 1449 1454 1458 1462 1465 1468 1471 1473 1475 1478
1441 1438 1438 1434 1434 1434 1430 1428 1426 1426 1424 1421 1421 1419 1418 1418 1418 1419 1420 1418 1417 1416 1414 1412 1411 1409 1409 1409 1410 1412 1413 1416 1417 1419 1420 1423 1425 1427 1429 1430 1431 1433 1436 1439 1444 1448 1452 1456 1460 1463 1466 1468 1471 1475
1440 1435 1433 1432 1431 1430 1428 1426 1424 1424 1423 1422 1422 1419 1418 1418 1418 1421 1419 1419 1417 1415 1414 1412 1410 1408 1408 1408 1409 1409 1411 1412 1413 1414 1416 1417 1419 1422 1424 1425 1426 1429 1432 1434 1437 1441 1444 1449 1453 1457 1460 1463 1466 1469
1436 1433 1432 1430 1429 1427 1427 1425 1424 1423 1423 1423 1422 1421 1422 1425 1425 1421 1420 1419 1417 1415 1413 1412 1410 1407 1407 1407 1408 1409 1409 1409 1410 1411 1412 1412 1413 1416 1420 1422 1424 1426 1427 1428 1432 1435 1438 1442 1445 1450 1454 1457 1462 1465
1432 1430 1430 1427 1426 1426 1426 1426 1425 1424 1424 1424 1424 1425 1425 1424 1423 1420 1418 1417 1416 1414 1413 1412 1410 1409 1408 1408 1408 1409 1408 1408 1409 1409 1410 1411 1412 1415 1417 1419 1420 1420 1421 1423 1426 1429 1431 1435 1442 1447 1453 1456 1460 1463
1428 1427 1427 1425 1426 1428 1427 1425 1425 1425 1424 1425 1425 1426 1425 1425 1424 1423 1421 1418 1416 1414 1413 1413 1412 1411 1409 1408 1408 1408 1409 1409 1410 1412 1412 1413 1414 1415 1414 1414 1416 1418 1419 1420 1425 1423 1426 1434 1439 1446 1450 1454 1458 1459
1426 1426 1425 1423 1424 1424 1423 1424 1425 1425 1425 1425 1426 1427 1427 1426 1426 1424 1422 1419 1417 1415 1414 1413 1412 1410 1410 1409 1410 1409 1410 1411 1412 1413 1413 1416 1417 1418 1420 1419 1418 1419 1420 1421 1424 1428 1430 1433 1440 1445 1447 1451 1454 1456
1423 1423 1424 1423 1422 1423 1423 1424 1425 1426 1425 1426 1427 1427 1427 1427 1427 1427 1425 1422 1419 1417 1415 1414 1413 1413 1413 1414 1415 1415 1416 1417 1417 1418 1417 1417 1416 1417 1417 1418 1419 1419 1421 1423 1425 1428 1429 1433 1437 1440 1443 1446 1450 1452
1422 1423 1423 1423 1421 1422 1426 1425 1427 1427 1426 1425 1425 1425 1427 1428 1428 1429 1428 1426 1424 1421 1420 1418 1418 1418 1418 1418 1418 1419 1418 1418 1418 1418 1417 1416 1413 1413 1415 1418 1420 1422 1423 1425 1426 1429 1431 1433 1435 1437 1439 1443 1445 1448
Wind_Speed
20 18 16 16 15 15 15 15 16 16 16 16 14 16 15 12 12 13 9 13 14 5 20 16 17 11 7 1 3 6 4 2 4 4 3 3 3 4 2 3 3 4 4 3 2 1 3 1 1 4 5 7 17 14
20 19 17 16 15 14 15 16 17 17 16 15 15 15 13 9 10 12 9 11 10 14 11 9 15 19 22 18 8 4 4 6 6 4 2 3 2 2 4 2 2 2 6 4 6 5 6 4 3 3 12 14 14 20
23 20 18 16 15 15 16 16 16 16 16 15 15 13 10 9 10 13 13 13 9 11 22 21 22 11 10 6 7 3 3 6 5 4 7 3 2 4 4 5 3 3 3 2 2 2 2 18 17 14 11 12 14 17
21 19 18 16 17 16 16 15 15 15 16 17 10 9 8 10 10 13 14 10 10 5 4 7 5 14 16 8 5 7 11 10 8 3 3 3 2 9 4 3 4 4 7 3 1 2 8 8 14 21 19 16 18 19
19 19 19 19 16 16 16 15 15 15 14 12 8 8 9 9 9 11 12 12 11 7 3 10 19 20 20 15 7 12 13 13 9 3 2 2 3 3 1 2 1 6 6 4 5 17 7 19 23 23 20 19 15 15
18 19 19 18 18 15 15 15 15 14 12 9 8 10 8 6 8 7 4 11 17 14 4 3 6 9 15 17 12 16 13 12 6 5 3 3 2 3 3 2 5 8 9 10 6 18 8 22 18 18 19 17 13 12
17 18 18 17 16 15 14 14 14 12 10 8 8 9 5 7 10 7 2 3 17 14 3 6 7 3 9 14 20 18 15 9 5 5 4 3 3 3 3 3 4 8 8 12 12 18 13 22 21 17 17 21 14 13
17 17 15 14 13 14 13 12 13 11 8 8 7 8 5 6 8 11 6 7 11 10 3 2 4 5 3 7 7 12 10 8 5 4 3 3 3 1 1 6 6 7 12 17 18 17 18 20 19 20 21 21 19 19
14 13 12 12 13 12 10 9 10 8 8 9 7 4 3 5 5 3 11 8 9 9 3 2 2 3 5 3 6 6 7 2 3 3 4 5 0 3 6 13 14 20 22 20 17 15 19 23 22 25 25 21 23 25
11 12 13 14 13 10 8 8 7 6 8 5 6 3 4 4 7 10 7 6 7 7 5 4 3 3 6 4 3 4 2 3 2 4 7 3 4 8 10 16 12 26 20 25 21 17 21 26 30 30 26 22 21 23
11 12 14 13 10 9 8 6 5 3 2 5 3 2 1 7 9 4 4 4 5 2 7 8 12 3 5 2 2 4 3 1 3 4 4 3 3 10 15 22 20 27 24 26 19 17 18 24 30 29 26 23 22 23
11 12 11 10 9 8 7 7 5 7 5 5 2 0 6 4 3 3 3 1 4 5 6 7 10 11 6 5 4 5 1 1 4 1 2 2 4 15 25 26 24 27 26 26 23 19 18 18 31 30 26 27 28 28
11 10 9 8 8 8 6 5 5 8 9 3 2 2 0 3 1 5 6 3 3 5 7 6 2 7 5 4 6 4 3 5 2 1 3 5 8 18 24 29 28 26 25 23 20 22 19 21 32 30 30 29 29 25
10 9 8 8 7 7 5 4 6 9 8 2 2 1 2 3 4 4 4 3 5 1 6 10 6 3 3 3 3 4 3 3 0 2 5 4 12 21 24 29 28 28 27 24 21 21 22 26 32 31 29 30 27 25
9 8 8 10 8 7 6 3 7 13 4 3 3 4 6 10 8 6 12 8 8 6 1 6 3 3 2 3 1 4 3 4 5 4 5 14 20 21 25 26 26 28 27 27 25 25 29 31 32 32 30 28 26 25
8 8 7 9 7 9 7 3 9 11 3 3 5 4 7 3 6 6 9 8 2 3 8 8 2 2 1 3 4 5 4 6 4 4 10 10 13 22 28 29 24 24 26 28 27 29 31 31 31 31 30 27 24 21
7 4 6 9 8 11 7 6 6 5 4 3 6 11 15 15 13 13 7 3 4 2 2 4 4 5 3 3 3 4 4 3 4 4 7 8 12 21 30 28 24 23 24 25 31 31 31 32 33 32 30 26 21 15
7 9 7 5 10 11 8 6 3 4 6 11 6 9 12 12 10 9 2 4 3 2 4 4 5 4 4 4 3 3 4 10 13 10 11 10 8 23 29 26 22 19 20 24 31 33 33 34 33 29 27 24 19 14
9 9 9 8 13 7 5 4 4 3 10 7 12 16 14 13 14 14 14 7 4 10 4 4 3 3 4 5 7 6 1 6 8 7 10 6 11 24 23 21 21 20 20 25 32 35 34 31 26 27 25 23 19 13
8 7 6 10 16 5 3 3 4 5 5 3 7 8 8 9 11 15 19 16 12 7 4 3 4 6 9 15 15 16 12 10 7 7 10 13 19 20 20 19 20 19 21 26 32 36 35 31 27 25 22 19 16 13
6 4 6 14 11 3 3 3 5 5 5 5 7 6 6 7 5 5 10 18 9 4 5 12 17 12 12 15 11 16 13 13 14 14 18 17 17 18 19 19 17 20 26 32 31 32 30 27 25 23 20 17 12 11
6 7 7 11 5 5 5 7 5 6 5 6 7 6 5 2 3 5 11 6 6 13 15 21 22 18 15 17 19 20 14 12 15 18 15 20 17 17 17 19 20 23 29 31 31 29 27 26 24 23 21 18 16 16
10 8 5 5 3 4 6 5 4 4 2 3 2 2 2 3 3 10 5 8 11 20 17 15 16 16 15 11 14 14 15 14 15 18 13 23 20 17 20 21 24 25 29 31 30 28 27 25 26 24 18 21 22 21
6 4 4 5 6 4 4 4 5 4 3 2 2 3 2 4 3 4 2 3 3 7 12 14 15 16 16 12 17 16 16 16 21 17 13 14 15 15 20 24 27 28 27 28 31 30 28 26 27 25 21 22 24 25
2 2 2 3 5 3 3 3 4 2 3 3 2 3 2 2 1 1 1 2 3 13 7 4 7 12 17 19 20 21 21 16 17 19 17 16 22 17 17 23 24 26 29 32 32 31 29 23 23 25 25 24 25 26
1 4 5 3 3 4 3 2 1 3 2 2 4 3 1 1 0 0 1 7 5 9 11 13 10 4 8 12 17 20 22 21 21 24 23 23 27 24 25 26 27 29 30 31 31 31 30 28 26 27 29 29 28 28
2 4 5 6 5 4 3 4 5 1 2 1 2 3 2 3 2 2 6 6 11 9 5 12 10 8 4 7 9 8 10 15 17 16 18 18 20 21 22 24 21 24 25 30 32 30 29 29 31 31 32 32 28 28
5 4 3 1 4 6 2 2 2 1 2 4 3 3 2 1 2 6 5 9 11 10 6 6 11 8 2 2 1 3 6 7 10 10 14 15 17 21 13 12 14 23 23 22 32 32 30 32 31 30 31 34 29 26
5 4 4 7 6 1 1 1 2 3 3 3 1 2 0 2 7 11 12 11 7 6 7 6 7 10 3 1 2 1 1 1 5 9 10 12 14 18 19 18 18 20 17 19 25 35 32 27 28 27 22 21 24 25
5 5 3 3 3 3 4 2 2 3 2 2 4 11 9 12 11 13 13 14 13 10 8 9 10 10 8 2 5 6 5 4 2 2 5 5 5 3 4 6 7 11 13 11 11 16 23 23 23 16 12 21 24 20
5 2 4 4 4 9 8 7 4 3 2 3 8 5 5 3 6 14 15 14 12 8 7 5 6 5 3 3 5 6 9 8 6 6 8 13 12 10 6 2 4 12 14 13 18 22 21 26 24 19 18 22 23 20
3 2 2 3 3 6 11 4 1 2 1 4 7 8 3 1 1 6 14 13 11 11 13 12 13 16 15 11 11 12 12 9 7 4 4 7 9 12 10 4 4 4 4 9 15 13 16 24 23 23 24 26 26 23
6 9 10 5 3 3 10 9 2 5 5 2 2 4 3 2 2 1 7 14 16 14 14 14 13 13 12 10 9 8 6 5 3 3 5 8 4 5 9 10 10 8 7 10 13 15 17 21 25 23 24 24 24 22
Wind_Direction
288 290 294 293 296 298 303 307 307 308 303 299 295 293 293 278 259 250 225 216 225 253 264 264 273 280 305 304 162 161 92 3 56 74 124 192 144 214 122 238 200 173 141 191 92 135 274 246 353 202 201 150 158 143
281 283 285 286 289 291 296 302 309 309 306 302 293 292 290 271 252 245 209 208 207 233 262 260 258 259 272 274 269 190 174 160 160 94 119 123 128 139 172 211 338 228 185 182 175 213 261 303 264 256 169 148 152 152
275 275 274 277 286 290 295 299 304 308 305 301 292 286 283 265 254 237 211 196 230 263 281 272 262 270 246 248 280 236 176 156 163 145 148 148 152 137 162 236 203 266 152 156 111 343 80 99 98 110 142 142 150 149
269 269 270 274 281 284 294 299 303 309 308 308 282 277 274 268 253 224 222 208 212 245 271 284 265 250 248 213 221 228 160 140 136 132 107 135 161 195 197 175 159 194 139 160 63 115 124 174 141 125 111 120 151 160
266 262 262 266 273 278 285 297 303 310 309 306 290 288 291 267 235 222 230 213 208 235 270 289 307 218 228 219 195 179 171 163 160 122 85 228 175 135 10 86 238 186 171 150 221 177 164 178 143 134 117 110 120 166
265 261 261 260 263 278 279 294 300 305 304 300 291 296 296 233 203 207 229 214 208 210 278 303 301 257 235 227 211 185 180 171 161 153 189 225 198 168 108 187 258 219 208 195 188 177 144 165 160 142 129 124 119 114
264 259 257 256 258 271 277 288 297 297 293 299 295 300 272 210 202 195 172 200 191 186 254 301 296 257 227 216 177 170 172 170 178 165 191 206 196 171 111 167 245 226 191 184 189 170 153 163 161 157 149 136 129 113
262 254 254 255 255 263 274 283 293 289 275 281 282 291 243 217 210 224 165 140 163 182 246 259 271 317 157 158 136 157 154 168 163 171 174 178 154 102 169 226 186 200 177 155 164 184 184 168 159 154 149 144 138 134
252 248 256 263 256 260 265 280 291 287 280 275 269 266 218 204 199 148 177 188 206 214 258 200 230 265 3 125 127 121 153 95 177 156 215 145 5 214 219 191 194 184 172 166 165 171 170 168 166 162 155 156 151 147
241 255 252 259 249 247 255 268 288 285 288 252 195 190 215 163 151 133 152 169 180 212 233 233 252 272 344 16 50 108 115 152 157 244 154 143 227 235 209 191 202 179 177 167 157 157 170 169 164 163 167 168 164 156
254 251 257 237 229 234 244 261 274 241 180 158 190 236 315 154 153 182 174 175 185 242 217 228 230 222 3 80 43 25 137 148 155 241 162 203 247 215 214 195 190 190 191 190 201 203 202 195 182 177 177 175 170 168
249 251 231 225 225 222 237 254 239 207 189 192 225 238 142 184 196 169 193 250 178 220 209 193 210 189 172 118 89 332 31 275 211 334 128 246 246 197 207 205 200 198 193 192 199 199 198 210 193 187 184 177 174 169
243 219 220 225 211 210 232 247 221 206 184 215 202 172 11 194 79 191 193 237 214 214 189 165 129 159 139 156 102 117 159 236 320 98 228 228 205 201 199 200 194 195 198 196 195 198 199 191 187 189 180 176 173 172
212 213 222 197 194 216 211 230 209 188 171 211 191 43 186 245 240 198 193 209 252 268 41 184 144 141 127 99 145 136 186 122 111 253 232 230 221 219 210 207 207 201 196 197 195 194 193 188 186 182 180 177 177 175
208 212 212 193 201 204 188 207 184 169 161 200 199 222 220 239 267 278 303 289 286 300 273 137 109 146 153 114 186 115 160 214 203 227 227 251 234 223 204 195 195 198 197 194 193 190 184 181 179 178 179 178 181 178
201 208 199 185 200 192 185 203 180 176 201 221 232 264 257 294 290 286 284 300 317 309 122 86 46 43 339 165 163 199 183 202 230 216 276 259 227 209 199 190 194 200 196 194 195 187 184 182 182 180 178 182 183 181
197 183 189 198 193 177 181 182 170 198 214 230 246 246 262 275 272 285 287 229 243 179 83 93 170 192 328 258 229 183 201 222 278 312 329 292 237 211 195 189 193 196 196 196 191 186 185 186 183 178 177 181 186 186
179 176 177 175 175 176 177 183 219 221 237 234 240 254 236 248 264 280 280 203 247 19 113 206 158 185 207 201 223 209 257 306 297 286 275 264 251 197 187 189 188 192 190 191 191 189 190 187 185 189 190 184 184 186
179 172 187 200 180 166 191 215 224 262 237 240 249 258 260 266 259 255 242 236 261 211 206 203 216 193 212 213 198 195 298 332 285 252 227 202 187 185 182 190 195 195 197 196 196 194 194 194 196 194 191 191 195 190
171 185 193 187 167 183 226 225 222 256 261 258 272 255 227 246 272 261 254 226 181 177 182 210 221 218 213 219 228 246 269 279 284 202 166 166 179 193 201 198 203 203 201 199 197 195 193 194 196 198 200 199 192 194
179 173 165 173 183 239 259 251 242 243 274 260 281 280 272 258 240 199 192 196 185 217 235 238 237 264 248 248 266 257 249 239 235 201 200 181 195 201 204 206 208 209 205 201 198 198 200 204 203 201 203 202 204 204
200 185 172 169 189 202 256 239 247 292 265 261 274 239 242 257 219 205 172 174 210 232 240 261 276 280 277 255 244 244 244 256 248 220 205 181 190 206 213 219 211 208 206 204 202 205 210 211 210 206 205 209 198 191
156 147 135 175 213 213 264 223 241 246 241 259 266 258 252 225 219 172 201 207 223 242 258 263 273 287 294 262 227 233 226 222 229 221 221 219 226 223 223 224 221 214 211 212 215 212 211 210 209 211 212 208 206 207
174 182 200 200 210 243 244 235 223 251 261 270 272 274 230 219 182 188 234 243 281 260 246 248 257 260 252 241 227 231 233 234 225 241 234 215 209 223 221 225 230 231 230 227 220 219 212 207 208 210 218 216 211 216
213 206 221 265 216 239 240 236 209 221 248 218 227 271 263 186 97 248 238 332 46 32 26 3 259 245 238 234 226 227 229 228 233 234 234 237 213 214 240 239 239 242 239 228 224 216 208 213 211 212 214 215 216 214
210 209 185 235 219 202 237 275 287 235 246 244 234 299 308 99 171 275 353 343 350 2 19 23 2 302 235 236 245 245 240 240 246 243 250 247 233 242 251 242 237 234 233 235 227 212 212 215 216 218 221 224 226 222
276 269 233 242 261 276 289 278 264 245 291 317 321 342 12 346 20 352 350 357 348 343 336 5 357 336 295 228 232 239 237 246 244 254 262 234 239 246 258 257 253 243 237 230 221 221 223 225 224 225 227 229 228 223
245 271 231 307 253 237 226 262 269 311 352 347 328 22 104 30 272 325 335 3 360 17 29 23 4 9 2 46 156 267 284 251 230 233 220 224 223 242 226 244 260 238 241 245 231 227 228 230 234 227 230 230 231 224
250 247 242 273 267 233 79 316 322 354 348 342 62 53 325 341 5 5 13 13 358 28 13 27 25 21 6 50 159 109 92 282 252 233 233 217 201 208 231 250 246 240 246 242 236 229 228 228 237 226 227 237 231 223
253 225 232 276 82 355 282 254 10 356 2 53 105 125 108 71 47 26 9 1 356 359 358 350 350 356 7 357 211 204 208 189 199 276 271 225 219 235 253 245 228 237 227 183 193 193 192 194 191 196 213 234 227 223
260 285 237 226 146 232 214 149 127 23 357 110 167 148 117 68 61 22 14 7 358 345 332 344 2 19 61 93 121 140 119 122 138 146 147 151 141 142 153 225 270 271 262 244 222 204 206 197 201 202 206 221 224 213
267 228 4 336 31 105 145 170 117 320 284 170 203 221 263 229 63 30 35 34 34 42 54 63 69 67 73 88 92 93 94 91 84 78 159 189 216 287 289 251 204 196 240 228 213 226 202 177 190 204 213 222 225 223
242 264 289 300 279 122 127 106 308 310 331 337 138 154 171 125 82 95 60 53 52 57 63 66 75 78 73 74 79 79 72 58 63 54 37 14 6 146 150 143 160 161 169 178 186 195 208 215 217 223 228 222 220 226